Time,TemperatureF,DewpointF,PressureIn,WindDirection,WindDirectionDegrees,WindSpeedMPH,WindSpeedGustMPH,Humidity,HourlyPrecipIn,Conditions,Clouds,dailyrainin,SolarRadiationWatts/m^2,SoftwareType,DateUTC
2013-09-27 00:01:00,50.7,49.6,30.18,SW,236,1.0,2.0,96,0.00,,,0.00,0,Wunderground v.1.15,2013-09-27 04:01:00,
2013-09-27 00:02:00,50.7,49.6,30.18,WSW,237,1.0,2.0,96,0.00,,,0.00,0,Wunderground v.1.15,2013-09-27 04:02:00,
2013-09-27 00:05:00,50.7,49.6,30.18,SW,236,1.0,3.0,96,0.00,,,0.00,0,Wunderground v.1.15,2013-09-27 04:05:00,
2013-09-27 00:06:00,50.7,49.6,30.18,SW,236,1.0,3.0,96,0.00,,,0.00,0,Wunderground v.1.15,2013-09-27 04:06:00,
2013-09-27 00:07:00,50.6,49.5,30.18,WSW,237,1.0,3.0,96,0.00,,,0.00,0,Wunderground v.1.15,2013-09-27 04:07:00,
2013-09-27 00:13:00,50.5,49.4,30.18,WSW,258,2.0,2.0,96,0.00,,,0.00,0,Wunderground v.1.15,2013-09-27 04:13:00,
2013-09-27 00:18:00,50.5,49.4,30.18,WSW,255,2.0,2.0,96,0.00,,,0.00,0,Wunderground v.1.15,2013-09-27 04:18:00,
2013-09-27 00:23:00,50.5,49.7,30.18,WSW,254,2.0,2.0,97,0.00,,,0.00,0,Wunderground v.1.15,2013-09-27 04:23:00,
2013-09-27 00:28:00,50.5,49.7,30.18,WSW,258,1.0,2.0,97,0.00,,,0.00,0,Wunderground v.1.15,2013-09-27 04:28:00,
2013-09-27 00:33:00,50.3,49.5,30.18,WSW,254,0.0,0.0,97,0.00,,,0.00,0,Wunderground v.1.15,2013-09-27 04:33:00,
2013-09-27 00:39:00,50.2,49.4,30.18,WSW,254,0.0,0.0,97,0.00,,,0.00,0,Wunderground v.1.15,2013-09-27 04:39:00,
2013-09-27 00:44:00,50.0,48.9,30.18,WSW,257,0.0,3.0,96,0.00,,,0.00,0,Wunderground v.1.15,2013-09-27 04:44:00,
2013-09-27 00:49:00,49.8,48.7,30.18,WSW,256,0.0,3.0,96,0.00,,,0.00,0,Wunderground v.1.15,2013-09-27 04:49:00,
2013-09-27 00:54:00,49.6,48.8,30.18,WSW,254,0.0,1.0,97,0.00,,,0.00,0,Wunderground v.1.15,2013-09-27 04:54:00,
2013-09-27 01:00:00,49.6,48.8,30.18,WSW,254,1.0,3.0,97,0.00,,,0.00,0,Wunderground v.1.15,2013-09-27 05:00:00,
2013-09-27 01:06:00,49.5,48.7,30.19,WSW,256,2.0,3.0,97,0.00,,,0.00,0,Wunderground v.1.15,2013-09-27 05:06:00,
2013-09-27 01:11:00,49.4,48.6,30.19,West,259,1.0,2.0,97,0.00,,,0.00,0,Wunderground v.1.15,2013-09-27 05:11:00,
2013-09-27 01:16:00,49.3,48.5,30.19,West,259,1.0,2.0,97,0.00,,,0.00,0,Wunderground v.1.15,2013-09-27 05:16:00,
2013-09-27 01:21:00,49.1,48.3,30.19,WSW,258,1.0,1.0,97,0.00,,,0.00,0,Wunderground v.1.15,2013-09-27 05:21:00,
2013-09-27 01:27:00,49.0,48.2,30.19,West,259,0.0,1.0,97,0.00,,,0.00,0,Wunderground v.1.15,2013-09-27 05:27:00,
2013-09-27 01:32:00,48.9,48.1,30.19,WSW,258,0.0,0.0,97,0.00,,,0.00,0,Wunderground v.1.15,2013-09-27 05:32:00,
2013-09-27 01:38:00,48.7,47.9,30.19,WSW,258,0.0,2.0,97,0.00,,,0.00,0,Wunderground v.1.15,2013-09-27 05:38:00,
2013-09-27 01:43:00,48.4,47.6,30.19,WSW,257,0.0,0.0,97,0.00,,,0.00,0,Wunderground v.1.15,2013-09-27 05:43:00,
2013-09-27 01:48:00,48.3,47.5,30.19,West,260,0.0,0.0,97,0.00,,,0.00,0,Wunderground v.1.15,2013-09-27 05:48:00,
2013-09-27 01:53:00,48.3,47.5,30.19,West,259,0.0,1.0,97,0.00,,,0.00,0,Wunderground v.1.15,2013-09-27 05:53:00,
2013-09-27 01:59:00,48.3,47.8,30.20,WSW,257,0.0,1.0,98,0.00,,,0.00,0,Wunderground v.1.15,2013-09-27 05:59:00,
2013-09-27 02:05:00,48.3,47.8,30.19,West,259,0.0,0.0,98,0.00,,,0.00,0,Wunderground v.1.15,2013-09-27 06:05:00,
2013-09-27 02:10:00,48.2,47.7,30.20,WSW,258,0.0,1.0,98,0.00,,,0.00,0,Wunderground v.1.15,2013-09-27 06:10:00,
2013-09-27 02:16:00,48.1,47.6,30.19,WSW,257,1.0,2.0,98,0.00,,,0.00,0,Wunderground v.1.15,2013-09-27 06:16:00,
2013-09-27 02:21:00,48.1,47.6,30.20,West,259,0.0,1.0,98,0.00,,,0.00,0,Wunderground v.1.15,2013-09-27 06:21:00,
2013-09-27 02:26:00,48.1,47.6,30.19,WSW,258,1.0,2.0,98,0.00,,,0.00,0,Wunderground v.1.15,2013-09-27 06:26:00,
2013-09-27 02:31:00,48.0,47.5,30.19,West,259,1.0,2.0,98,0.00,,,0.00,0,Wunderground v.1.15,2013-09-27 06:31:00,
2013-09-27 02:37:00,47.9,47.4,30.19,WSW,255,1.0,2.0,98,0.00,,,0.00,0,Wunderground v.1.15,2013-09-27 06:37:00,
2013-09-27 02:42:00,47.6,46.8,30.19,WSW,257,0.0,0.0,97,0.00,,,0.00,0,Wunderground v.1.15,2013-09-27 06:42:00,
2013-09-27 02:47:00,47.3,46.5,30.20,WSW,257,0.0,0.0,97,0.00,,,0.00,0,Wunderground v.1.15,2013-09-27 06:47:00,
2013-09-27 02:52:00,47.2,46.4,30.20,WSW,257,0.0,0.0,97,0.00,,,0.00,0,Wunderground v.1.15,2013-09-27 06:52:00,
2013-09-27 02:57:00,47.1,46.3,30.20,West,259,0.0,0.0,97,0.00,,,0.00,0,Wunderground v.1.15,2013-09-27 06:57:00,
2013-09-27 03:03:00,46.9,46.4,30.20,West,259,0.0,0.0,98,0.00,,,0.00,0,Wunderground v.1.15,2013-09-27 07:03:00,
2013-09-27 03:08:00,46.9,46.4,30.20,WSW,257,0.0,1.0,98,0.00,,,0.00,0,Wunderground v.1.15,2013-09-27 07:08:00,
2013-09-27 03:13:00,46.9,46.4,30.20,WSW,257,1.0,1.0,98,0.00,,,0.00,0,Wunderground v.1.15,2013-09-27 07:13:00,
2013-09-27 03:19:00,46.9,46.4,30.20,WSW,257,0.0,2.0,98,0.00,,,0.00,0,Wunderground v.1.15,2013-09-27 07:19:00,
2013-09-27 03:24:00,46.9,46.4,30.20,WSW,257,0.0,1.0,98,0.00,,,0.00,0,Wunderground v.1.15,2013-09-27 07:24:00,
2013-09-27 03:29:00,46.8,46.3,30.20,West,259,1.0,2.0,98,0.00,,,0.00,0,Wunderground v.1.15,2013-09-27 07:29:00,
2013-09-27 03:35:00,46.7,46.2,30.20,WSW,258,0.0,1.0,98,0.00,,,0.00,0,Wunderground v.1.15,2013-09-27 07:35:00,
2013-09-27 03:40:00,46.6,46.1,30.20,WSW,257,0.0,0.0,98,0.00,,,0.00,0,Wunderground v.1.15,2013-09-27 07:40:00,
2013-09-27 03:45:00,46.6,46.1,30.21,North,360,0.0,0.0,98,0.00,,,0.00,0,Wunderground v.1.15,2013-09-27 07:45:00,
2013-09-27 03:50:00,46.4,45.9,30.21,WSW,257,0.0,0.0,98,0.00,,,0.00,0,Wunderground v.1.15,2013-09-27 07:50:00,
2013-09-27 03:56:00,46.3,45.8,30.21,WSW,256,0.0,0.0,98,0.00,,,0.00,0,Wunderground v.1.15,2013-09-27 07:56:00,
2013-09-27 04:02:00,46.2,45.7,30.21,WSW,257,0.0,0.0,98,0.00,,,0.00,0,Wunderground v.1.15,2013-09-27 08:02:00,
2013-09-27 04:07:00,46.2,45.7,30.21,West,259,0.0,0.0,98,0.00,,,0.00,0,Wunderground v.1.15,2013-09-27 08:07:00,
2013-09-27 04:12:00,46.1,45.6,30.21,West,260,0.0,0.0,98,0.00,,,0.00,0,Wunderground v.1.15,2013-09-27 08:12:00,
2013-09-27 04:18:00,45.9,45.4,30.21,West,259,0.0,0.0,98,0.00,,,0.00,0,Wunderground v.1.15,2013-09-27 08:18:00,
2013-09-27 04:23:00,45.8,45.3,30.21,West,259,0.0,0.0,98,0.00,,,0.00,0,Wunderground v.1.15,2013-09-27 08:23:00,
2013-09-27 04:28:00,45.7,45.2,30.21,WSW,257,0.0,0.0,98,0.00,,,0.00,0,Wunderground v.1.15,2013-09-27 08:28:00,
2013-09-27 04:33:00,45.5,45.0,30.21,WSW,258,0.0,0.0,98,0.00,,,0.00,0,Wunderground v.1.15,2013-09-27 08:33:00,
2013-09-27 04:39:00,45.5,45.0,30.21,WSW,257,0.0,0.0,98,0.00,,,0.00,0,Wunderground v.1.15,2013-09-27 08:39:00,
2013-09-27 04:44:00,45.5,45.0,30.21,WSW,256,0.0,1.0,98,0.00,,,0.00,0,Wunderground v.1.15,2013-09-27 08:44:00,
2013-09-27 04:49:00,45.5,45.0,30.22,West,259,0.0,2.0,98,0.00,,,0.00,0,Wunderground v.1.15,2013-09-27 08:49:00,
2013-09-27 04:54:00,45.3,44.8,30.22,WSW,256,0.0,0.0,98,0.00,,,0.00,0,Wunderground v.1.15,2013-09-27 08:54:00,
2013-09-27 05:00:00,45.1,44.6,30.22,West,259,0.0,0.0,98,0.00,,,0.00,0,Wunderground v.1.15,2013-09-27 09:00:00,
2013-09-27 05:06:00,45.0,44.5,30.22,West,259,0.0,0.0,98,0.00,,,0.00,0,Wunderground v.1.15,2013-09-27 09:06:00,
2013-09-27 05:11:00,44.9,44.4,30.22,WSW,257,0.0,0.0,98,0.00,,,0.00,0,Wunderground v.1.15,2013-09-27 09:11:00,
2013-09-27 05:16:00,44.7,44.2,30.22,WSW,257,0.0,0.0,98,0.00,,,0.00,0,Wunderground v.1.15,2013-09-27 09:16:00,
2013-09-27 05:21:00,44.6,44.1,30.22,West,260,0.0,0.0,98,0.00,,,0.00,0,Wunderground v.1.15,2013-09-27 09:21:00,
2013-09-27 05:26:00,44.5,44.0,30.22,WSW,258,0.0,0.0,98,0.00,,,0.00,0,Wunderground v.1.15,2013-09-27 09:26:00,
2013-09-27 05:31:00,44.5,44.0,30.22,West,259,0.0,0.0,98,0.00,,,0.00,0,Wunderground v.1.15,2013-09-27 09:31:00,
2013-09-27 05:37:00,44.5,44.2,30.22,WSW,255,0.0,0.0,99,0.00,,,0.00,0,Wunderground v.1.15,2013-09-27 09:37:00,
2013-09-27 05:42:00,44.5,44.2,30.23,West,261,0.0,0.0,99,0.00,,,0.00,0,Wunderground v.1.15,2013-09-27 09:42:00,
2013-09-27 05:47:00,44.5,44.2,30.23,WSW,257,0.0,0.0,99,0.00,,,0.00,0,Wunderground v.1.15,2013-09-27 09:47:00,
2013-09-27 05:52:00,44.4,44.1,30.23,WSW,258,0.0,1.0,99,0.00,,,0.00,0,Wunderground v.1.15,2013-09-27 09:52:00,
2013-09-27 05:57:00,44.4,44.1,30.23,WSW,257,1.0,2.0,99,0.00,,,0.00,0,Wunderground v.1.15,2013-09-27 09:57:00,
2013-09-27 06:03:00,44.2,43.9,30.23,WSW,256,1.0,2.0,99,0.00,,,0.00,0,Wunderground v.1.15,2013-09-27 10:03:00,
2013-09-27 06:08:00,44.2,43.9,30.23,WSW,257,1.0,2.0,99,0.00,,,0.00,0,Wunderground v.1.15,2013-09-27 10:08:00,
2013-09-27 06:14:00,44.3,44.0,30.24,WSW,258,1.0,1.0,99,0.00,,,0.00,0,Wunderground v.1.15,2013-09-27 10:14:00,
2013-09-27 06:19:00,44.3,44.0,30.23,WSW,256,0.0,1.0,99,0.00,,,0.00,0,Wunderground v.1.15,2013-09-27 10:19:00,
2013-09-27 06:25:00,44.2,43.9,30.24,WSW,258,0.0,0.0,99,0.00,,,0.00,0,Wunderground v.1.15,2013-09-27 10:25:00,
2013-09-27 06:30:00,44.3,44.0,30.24,WSW,257,0.0,0.0,99,0.00,,,0.00,0,Wunderground v.1.15,2013-09-27 10:30:00,
2013-09-27 06:35:00,44.3,44.0,30.24,West,259,0.0,0.0,99,0.00,,,0.00,0,Wunderground v.1.15,2013-09-27 10:35:00,
2013-09-27 06:41:00,44.2,43.9,30.24,WSW,257,0.0,0.0,99,0.00,,,0.00,0,Wunderground v.1.15,2013-09-27 10:41:00,
2013-09-27 06:46:00,44.1,43.8,30.24,WSW,257,0.0,0.0,99,0.00,,,0.00,0,Wunderground v.1.15,2013-09-27 10:46:00,
2013-09-27 06:51:00,44.0,43.7,30.24,West,259,0.0,0.0,99,0.00,,,0.00,0,Wunderground v.1.15,2013-09-27 10:51:00,
2013-09-27 06:57:00,44.0,43.7,30.25,WSW,255,0.0,0.0,99,0.00,,,0.00,0,Wunderground v.1.15,2013-09-27 10:57:00,
2013-09-27 07:03:00,43.9,43.6,30.25,WSW,258,0.0,0.0,99,0.00,,,0.00,0,Wunderground v.1.15,2013-09-27 11:03:00,
2013-09-27 07:08:00,43.9,43.6,30.25,West,259,0.0,0.0,99,0.00,,,0.00,5,Wunderground v.1.15,2013-09-27 11:08:00,
2013-09-27 07:13:00,43.9,43.6,30.25,WSW,258,0.0,0.0,99,0.00,,,0.00,7,Wunderground v.1.15,2013-09-27 11:13:00,
2013-09-27 07:19:00,43.9,43.6,30.26,West,261,0.0,0.0,99,0.00,,,0.00,9,Wunderground v.1.15,2013-09-27 11:19:00,
2013-09-27 07:24:00,43.8,43.5,30.26,North,360,0.0,0.0,99,0.00,,,0.00,12,Wunderground v.1.15,2013-09-27 11:24:00,
2013-09-27 07:29:00,43.8,43.5,30.26,West,260,0.0,0.0,99,0.00,,,0.00,14,Wunderground v.1.15,2013-09-27 11:29:00,
2013-09-27 07:34:00,43.7,43.4,30.27,WSW,258,0.0,0.0,99,0.00,,,0.00,18,Wunderground v.1.15,2013-09-27 11:34:00,
2013-09-27 07:40:00,43.7,43.4,30.27,West,261,0.0,0.0,99,0.00,,,0.00,21,Wunderground v.1.15,2013-09-27 11:40:00,
2013-09-27 07:45:00,43.8,43.5,30.27,North,360,0.0,0.0,99,0.00,,,0.00,23,Wunderground v.1.15,2013-09-27 11:45:00,
2013-09-27 07:50:00,43.8,43.5,30.27,North,360,0.0,0.0,99,0.00,,,0.00,25,Wunderground v.1.15,2013-09-27 11:50:00,
2013-09-27 07:56:00,43.9,43.6,30.27,West,259,0.0,0.0,99,0.00,,,0.00,26,Wunderground v.1.15,2013-09-27 11:56:00,
2013-09-27 08:01:00,44.0,43.7,30.27,WSW,258,0.0,0.0,99,0.00,,,0.00,28,Wunderground v.1.15,2013-09-27 12:01:00,
2013-09-27 08:07:00,44.2,44.2,30.27,West,259,0.0,0.0,100,0.00,,,0.00,32,Wunderground v.1.15,2013-09-27 12:07:00,
2013-09-27 08:12:00,44.4,44.4,30.27,North,360,0.0,0.0,100,0.00,,,0.00,35,Wunderground v.1.15,2013-09-27 12:12:00,
2013-09-27 08:17:00,44.7,44.7,30.27,WSW,257,0.0,0.0,100,0.00,,,0.00,35,Wunderground v.1.15,2013-09-27 12:17:00,
2013-09-27 08:23:00,45.0,45.0,30.28,WSW,257,0.0,0.0,100,0.00,,,0.00,63,Wunderground v.1.15,2013-09-27 12:23:00,
2013-09-27 08:36:00,46.5,46.5,30.28,WSW,258,0.0,0.0,100,0.00,,,0.00,225,Wunderground v.1.15,2013-09-27 12:36:00,
2013-09-27 08:41:00,47.2,47.2,30.28,WSW,258,0.0,0.0,100,0.00,,,0.00,236,Wunderground v.1.15,2013-09-27 12:41:00,
2013-09-27 08:47:00,47.8,47.8,30.28,WSW,258,0.0,0.0,100,0.00,,,0.00,257,Wunderground v.1.15,2013-09-27 12:47:00,
2013-09-27 08:52:00,48.3,48.3,30.28,WSW,257,0.0,0.0,100,0.00,,,0.00,272,Wunderground v.1.15,2013-09-27 12:52:00,
2013-09-27 08:57:00,48.8,48.8,30.28,West,259,0.0,0.0,100,0.00,,,0.00,288,Wunderground v.1.15,2013-09-27 12:57:00,
2013-09-27 09:03:00,49.4,49.4,30.28,North,360,0.0,0.0,100,0.00,,,0.00,306,Wunderground v.1.15,2013-09-27 13:03:00,
2013-09-27 09:09:00,50.1,50.1,30.28,WSW,256,0.0,0.0,100,0.00,,,0.00,323,Wunderground v.1.15,2013-09-27 13:09:00,
2013-09-27 09:14:00,50.6,50.6,30.29,West,260,0.0,0.0,100,0.00,,,0.00,339,Wunderground v.1.15,2013-09-27 13:14:00,
2013-09-27 09:19:00,51.1,51.1,30.28,WSW,257,0.0,0.0,100,0.00,,,0.00,360,Wunderground v.1.15,2013-09-27 13:19:00,
2013-09-27 09:24:00,51.8,51.8,30.29,West,259,0.0,1.0,100,0.00,,,0.00,374,Wunderground v.1.15,2013-09-27 13:24:00,
2013-09-27 09:30:00,52.4,52.4,30.29,WSW,258,0.0,0.0,100,0.00,,,0.00,397,Wunderground v.1.15,2013-09-27 13:30:00,
2013-09-27 09:35:00,53.0,53.0,30.29,WSW,256,0.0,0.0,100,0.00,,,0.00,420,Wunderground v.1.15,2013-09-27 13:35:00,
2013-09-27 09:41:00,53.8,52.7,30.29,WSW,256,0.0,0.0,96,0.00,,,0.00,443,Wunderground v.1.15,2013-09-27 13:41:00,
2013-09-27 09:46:00,54.4,52.7,30.29,WSW,255,0.0,0.0,94,0.00,,,0.00,461,Wunderground v.1.15,2013-09-27 13:46:00,
2013-09-27 09:52:00,55.4,53.1,30.29,North,360,0.0,0.0,92,0.00,,,0.00,487,Wunderground v.1.15,2013-09-27 13:52:00,
2013-09-27 09:57:00,56.4,54.1,30.29,WSW,258,0.0,0.0,92,0.00,,,0.00,510,Wunderground v.1.15,2013-09-27 13:57:00,
2013-09-27 10:03:00,56.9,53.7,30.29,North,360,0.0,0.0,89,0.00,,,0.00,529,Wunderground v.1.15,2013-09-27 14:03:00,
2013-09-27 10:08:00,57.5,54.0,30.29,SSE,167,0.0,0.0,88,0.00,,,0.00,519,Wunderground v.1.15,2013-09-27 14:08:00,
2013-09-27 10:13:00,58.2,54.3,30.29,SSE,167,0.0,1.0,87,0.00,,,0.00,541,Wunderground v.1.15,2013-09-27 14:13:00,
2013-09-27 10:19:00,59.1,55.5,30.29,SSE,167,0.0,1.0,88,0.00,,,0.00,550,Wunderground v.1.15,2013-09-27 14:19:00,
2013-09-27 10:24:00,59.5,55.3,30.29,East,95,0.0,1.0,86,0.00,,,0.00,575,Wunderground v.1.15,2013-09-27 14:24:00,
2013-09-27 10:29:00,60.1,55.6,30.29,East,96,0.0,1.0,85,0.00,,,0.00,582,Wunderground v.1.15,2013-09-27 14:29:00,
2013-09-27 10:35:00,60.7,55.2,30.29,East,95,0.0,0.0,82,0.00,,,0.00,580,Wunderground v.1.15,2013-09-27 14:35:00,
2013-09-27 10:40:00,61.4,55.5,30.29,East,95,0.0,0.0,81,0.00,,,0.00,608,Wunderground v.1.15,2013-09-27 14:40:00,
2013-09-27 10:45:00,61.8,54.9,30.29,East,94,0.0,2.0,78,0.00,,,0.00,613,Wunderground v.1.15,2013-09-27 14:45:00,
2013-09-27 10:51:00,62.8,56.2,30.29,ESE,103,1.0,1.0,79,0.00,,,0.00,622,Wunderground v.1.15,2013-09-27 14:51:00,
2013-09-27 10:56:00,63.8,56.1,30.29,SE,129,1.0,2.0,76,0.00,,,0.00,629,Wunderground v.1.15,2013-09-27 14:56:00,
2013-09-27 11:02:00,64.4,55.6,30.29,ESE,103,1.0,1.0,73,0.00,,,0.00,638,Wunderground v.1.15,2013-09-27 15:02:00,
2013-09-27 11:07:00,64.9,56.0,30.29,East,97,0.0,2.0,73,0.00,,,0.00,649,Wunderground v.1.15,2013-09-27 15:07:00,
2013-09-27 11:13:00,65.7,56.4,30.29,SE,136,1.0,1.0,72,0.00,,,0.00,659,Wunderground v.1.15,2013-09-27 15:13:00,
2013-09-27 11:18:00,66.1,56.8,30.28,SE,135,1.0,1.0,72,0.00,,,0.00,666,Wunderground v.1.15,2013-09-27 15:18:00,
2013-09-27 11:23:00,66.7,57.0,30.28,SE,132,1.0,1.0,71,0.00,,,0.00,679,Wunderground v.1.15,2013-09-27 15:23:00,
2013-09-27 11:29:00,67.2,57.5,30.28,NE,46,1.0,6.0,71,0.00,,,0.00,686,Wunderground v.1.15,2013-09-27 15:29:00,
2013-09-27 11:34:00,67.1,56.6,30.28,NE,50,3.0,5.0,69,0.00,,,0.00,689,Wunderground v.1.15,2013-09-27 15:34:00,
2013-09-27 11:39:00,67.0,57.3,30.28,ENE,69,4.0,5.0,71,0.00,,,0.00,696,Wunderground v.1.15,2013-09-27 15:39:00,
2013-09-27 11:45:00,67.2,57.9,30.28,NE,39,3.0,4.0,72,0.00,,,0.00,701,Wunderground v.1.15,2013-09-27 15:45:00,
2013-09-27 11:50:00,67.6,57.5,30.28,ESE,111,2.0,5.0,70,0.00,,,0.00,710,Wunderground v.1.15,2013-09-27 15:50:00,
2013-09-27 11:55:00,68.2,56.8,30.28,SSE,152,3.0,7.0,67,0.00,,,0.00,715,Wunderground v.1.15,2013-09-27 15:55:00,
2013-09-27 12:00:00,68.7,57.7,30.28,NNE,30,3.0,3.0,68,0.00,,,0.00,721,Wunderground v.1.15,2013-09-27 16:00:00,
2013-09-27 12:06:00,69.2,58.2,30.28,ENE,57,2.0,4.0,68,0.00,,,0.00,724,Wunderground v.1.15,2013-09-27 16:06:00,
2013-09-27 12:11:00,69.4,57.5,30.28,NE,42,3.0,6.0,66,0.00,,,0.00,731,Wunderground v.1.15,2013-09-27 16:11:00,
2013-09-27 12:16:00,69.6,57.7,30.27,East,84,4.0,7.0,66,0.00,,,0.00,733,Wunderground v.1.15,2013-09-27 16:16:00,
2013-09-27 12:21:00,70.0,58.1,30.27,ESE,118,3.0,3.0,66,0.00,,,0.00,737,Wunderground v.1.15,2013-09-27 16:21:00,
2013-09-27 12:27:00,70.0,57.3,30.27,NE,52,2.0,3.0,64,0.00,,,0.00,740,Wunderground v.1.15,2013-09-27 16:27:00,
2013-09-27 12:32:00,70.0,57.3,30.27,NNW,348,1.0,2.0,64,0.00,,,0.00,740,Wunderground v.1.15,2013-09-27 16:32:00,
2013-09-27 12:37:00,70.3,57.5,30.27,North,9,2.0,4.0,64,0.00,,,0.00,745,Wunderground v.1.15,2013-09-27 16:37:00,
2013-09-27 12:43:00,71.0,57.8,30.27,SE,128,3.0,8.0,63,0.00,,,0.00,747,Wunderground v.1.15,2013-09-27 16:43:00,
2013-09-27 12:49:00,71.9,58.6,30.27,SE,146,5.0,8.0,63,0.00,,,0.00,752,Wunderground v.1.15,2013-09-27 16:49:00,
2013-09-27 12:54:00,72.4,57.3,30.27,ESE,121,3.0,5.0,59,0.00,,,0.00,751,Wunderground v.1.15,2013-09-27 16:54:00,
2013-09-27 12:59:00,72.1,57.9,30.27,ENE,67,2.0,7.0,61,0.00,,,0.00,752,Wunderground v.1.15,2013-09-27 16:59:00,
2013-09-27 13:05:00,71.9,58.6,30.26,ENE,76,3.0,4.0,63,0.00,,,0.00,751,Wunderground v.1.15,2013-09-27 17:05:00,
2013-09-27 13:11:00,71.9,56.8,30.26,ENE,72,3.0,3.0,59,0.00,,,0.00,751,Wunderground v.1.15,2013-09-27 17:11:00,
2013-09-27 13:16:00,72.0,57.8,30.26,East,82,3.0,5.0,61,0.00,,,0.00,749,Wunderground v.1.15,2013-09-27 17:16:00,
2013-09-27 13:21:00,72.2,57.5,30.26,East,88,3.0,6.0,60,0.00,,,0.00,749,Wunderground v.1.15,2013-09-27 17:21:00,
2013-09-27 13:26:00,72.0,57.4,30.26,SSE,147,3.0,6.0,60,0.00,,,0.00,747,Wunderground v.1.15,2013-09-27 17:26:00,
2013-09-27 13:27:00,72.0,56.9,30.26,SE,140,3.0,6.0,59,0.00,,,0.00,747,Wunderground v.1.15,2013-09-27 17:27:00,
2013-09-27 13:32:00,72.4,58.2,30.26,SE,127,2.0,6.0,61,0.00,,,0.00,742,Wunderground v.1.15,2013-09-27 17:32:00,
2013-09-27 13:37:00,72.8,57.6,30.25,ESE,105,1.0,6.0,59,0.00,,,0.00,742,Wunderground v.1.15,2013-09-27 17:37:00,
2013-09-27 13:42:00,73.1,57.4,30.25,ENE,74,1.0,2.0,58,0.00,,,0.00,640,Wunderground v.1.15,2013-09-27 17:42:00,
2013-09-27 13:48:00,73.2,57.1,30.25,East,91,2.0,6.0,57,0.00,,,0.00,731,Wunderground v.1.15,2013-09-27 17:48:00,
2013-09-27 13:53:00,73.6,58.9,30.25,ESE,121,4.0,5.0,60,0.00,,,0.00,729,Wunderground v.1.15,2013-09-27 17:53:00,
2013-09-27 13:59:00,73.7,58.0,30.25,ESE,111,2.0,5.0,58,0.00,,,0.00,756,Wunderground v.1.15,2013-09-27 17:59:00,
2013-09-27 14:04:00,73.9,58.7,30.25,ENE,75,2.0,3.0,59,0.00,,,0.00,759,Wunderground v.1.15,2013-09-27 18:04:00,
2013-09-27 14:10:00,74.3,58.6,30.25,NE,46,2.0,2.0,58,0.00,,,0.00,749,Wunderground v.1.15,2013-09-27 18:10:00,
2013-09-27 14:15:00,74.5,57.8,30.24,ESE,105,2.0,5.0,56,0.00,,,0.00,772,Wunderground v.1.15,2013-09-27 18:15:00,
2013-09-27 14:20:00,74.5,57.8,30.24,ENE,60,3.0,5.0,56,0.00,,,0.00,155,Wunderground v.1.15,2013-09-27 18:20:00,
2013-09-27 14:26:00,73.9,56.7,30.24,NE,44,3.0,5.0,55,0.00,,,0.00,144,Wunderground v.1.15,2013-09-27 18:26:00,
2013-09-27 14:31:00,73.2,56.1,30.24,NNE,13,3.0,4.0,55,0.00,,,0.00,155,Wunderground v.1.15,2013-09-27 18:31:00,
2013-09-27 14:36:00,72.7,54.6,30.24,NNE,27,4.0,6.0,53,0.00,,,0.00,146,Wunderground v.1.15,2013-09-27 18:36:00,
2013-09-27 14:42:00,72.5,54.9,30.24,North,9,4.0,4.0,54,0.00,,,0.00,158,Wunderground v.1.15,2013-09-27 18:42:00,
2013-09-27 14:47:00,72.3,55.2,30.24,East,93,3.0,4.0,55,0.00,,,0.00,130,Wunderground v.1.15,2013-09-27 18:47:00,
2013-09-27 14:52:00,72.2,57.5,30.24,ESE,113,2.0,7.0,60,0.00,,,0.00,123,Wunderground v.1.15,2013-09-27 18:52:00,
2013-09-27 14:58:00,71.9,55.3,30.24,SE,132,3.0,7.0,56,0.00,,,0.00,114,Wunderground v.1.15,2013-09-27 18:58:00,
2013-09-27 15:04:00,71.7,55.7,30.24,SE,132,4.0,4.0,57,0.00,,,0.00,137,Wunderground v.1.15,2013-09-27 19:04:00,
2013-09-27 15:09:00,71.6,55.6,30.23,SSE,154,3.0,4.0,57,0.00,,,0.00,132,Wunderground v.1.15,2013-09-27 19:09:00,
2013-09-27 15:14:00,71.6,57.0,30.23,SSE,155,2.0,3.0,60,0.00,,,0.00,137,Wunderground v.1.15,2013-09-27 19:14:00,
2013-09-27 15:19:00,71.6,57.4,30.23,SSE,158,0.0,3.0,61,0.00,,,0.00,120,Wunderground v.1.15,2013-09-27 19:19:00,
2013-09-27 15:25:00,71.5,56.4,30.23,SSE,154,0.0,0.0,59,0.00,,,0.00,128,Wunderground v.1.15,2013-09-27 19:25:00,
2013-09-27 15:30:00,71.0,56.4,30.23,SSE,156,0.0,0.0,60,0.00,,,0.00,371,Wunderground v.1.15,2013-09-27 19:30:00,
2013-09-27 15:36:00,71.7,57.5,30.23,SSW,209,0.0,3.0,61,0.00,,,0.00,621,Wunderground v.1.15,2013-09-27 19:36:00,
2013-09-27 15:41:00,73.1,57.9,30.23,SW,215,1.0,3.0,59,0.00,,,0.00,578,Wunderground v.1.15,2013-09-27 19:41:00,
2013-09-27 15:46:00,74.4,55.1,30.23,SSW,213,1.0,3.0,51,0.00,,,0.00,606,Wunderground v.1.15,2013-09-27 19:46:00,
2013-09-27 15:52:00,75.5,56.1,30.23,SW,236,0.0,1.0,51,0.00,,,0.00,610,Wunderground v.1.15,2013-09-27 19:52:00,
2013-09-27 15:57:00,75.9,55.4,30.23,North,11,1.0,3.0,49,0.00,,,0.00,575,Wunderground v.1.15,2013-09-27 19:57:00,
2013-09-27 16:03:00,75.9,55.4,30.23,NNW,330,1.0,1.0,49,0.00,,,0.00,536,Wunderground v.1.15,2013-09-27 20:03:00,
2013-09-27 16:08:00,76.6,56.0,30.23,North,360,0.0,3.0,49,0.00,,,0.00,519,Wunderground v.1.15,2013-09-27 20:08:00,
2013-09-27 16:13:00,76.7,56.7,30.23,East,84,3.0,8.0,50,0.00,,,0.00,508,Wunderground v.1.15,2013-09-27 20:13:00,
2013-09-27 16:19:00,76.6,56.6,30.23,East,94,6.0,8.0,50,0.00,,,0.00,471,Wunderground v.1.15,2013-09-27 20:19:00,
2013-09-27 16:24:00,76.2,56.2,30.23,ENE,76,5.0,7.0,50,0.00,,,0.00,457,Wunderground v.1.15,2013-09-27 20:24:00,
2013-09-27 16:30:00,76.2,56.2,30.23,SE,132,4.0,5.0,50,0.00,,,0.00,445,Wunderground v.1.15,2013-09-27 20:30:00,
2013-09-27 16:35:00,76.4,56.9,30.23,East,89,4.0,5.0,51,0.00,,,0.00,445,Wunderground v.1.15,2013-09-27 20:35:00,
2013-09-27 16:40:00,76.0,55.5,30.23,ESE,110,3.0,3.0,49,0.00,,,0.00,100,Wunderground v.1.15,2013-09-27 20:40:00,
2013-09-27 16:45:00,75.4,54.9,30.23,SE,128,2.0,3.0,49,0.00,,,0.00,107,Wunderground v.1.15,2013-09-27 20:45:00,
2013-09-27 16:51:00,75.0,56.7,30.23,SE,135,2.0,3.0,53,0.00,,,0.00,114,Wunderground v.1.15,2013-09-27 20:51:00,
2013-09-27 16:56:00,74.7,55.9,30.23,ESE,113,2.0,4.0,52,0.00,,,0.00,153,Wunderground v.1.15,2013-09-27 20:56:00,
2013-09-27 17:02:00,74.3,57.1,30.23,East,81,4.0,10.0,55,0.00,,,0.00,236,Wunderground v.1.15,2013-09-27 21:02:00,
2013-09-27 17:07:00,74.2,56.5,30.23,ENE,66,7.0,11.0,54,0.00,,,0.00,229,Wunderground v.1.15,2013-09-27 21:07:00,
2013-09-27 17:13:00,73.9,56.7,30.23,East,86,9.0,12.0,55,0.00,,,0.00,121,Wunderground v.1.15,2013-09-27 21:13:00,
2013-09-27 17:18:00,73.6,56.4,30.23,East,82,8.0,12.0,55,0.00,,,0.00,120,Wunderground v.1.15,2013-09-27 21:18:00,
2013-09-27 17:23:00,73.2,55.6,30.23,East,83,8.0,10.0,54,0.00,,,0.00,93,Wunderground v.1.15,2013-09-27 21:23:00,
2013-09-27 17:29:00,72.9,55.8,30.23,ENE,68,7.0,10.0,55,0.00,,,0.00,65,Wunderground v.1.15,2013-09-27 21:29:00,
2013-09-27 17:34:00,72.5,55.4,30.23,East,86,7.0,10.0,55,0.00,,,0.00,47,Wunderground v.1.15,2013-09-27 21:34:00,
2013-09-27 17:39:00,72.1,55.5,30.23,East,82,7.0,10.0,56,0.00,,,0.00,42,Wunderground v.1.15,2013-09-27 21:39:00,
2013-09-27 17:45:00,71.7,55.7,30.23,ENE,63,6.0,8.0,57,0.00,,,0.00,33,Wunderground v.1.15,2013-09-27 21:45:00,
2013-09-27 17:50:00,71.4,55.4,30.23,East,86,5.0,5.0,57,0.00,,,0.00,35,Wunderground v.1.15,2013-09-27 21:50:00,
2013-09-27 17:55:00,71.2,55.2,30.23,ENE,64,4.0,5.0,57,0.00,,,0.00,32,Wunderground v.1.15,2013-09-27 21:55:00,
2013-09-27 18:00:00,71.0,55.9,30.23,East,82,3.0,5.0,59,0.00,,,0.00,53,Wunderground v.1.15,2013-09-27 22:00:00,
2013-09-27 18:06:00,70.8,55.3,30.23,East,92,4.0,6.0,58,0.00,,,0.00,37,Wunderground v.1.15,2013-09-27 22:06:00,
2013-09-27 18:12:00,70.5,55.5,30.24,ENE,74,3.0,4.0,59,0.00,,,0.00,26,Wunderground v.1.15,2013-09-27 22:12:00,
2013-09-27 18:17:00,70.3,55.8,30.24,ENE,68,3.0,6.0,60,0.00,,,0.00,25,Wunderground v.1.15,2013-09-27 22:17:00,
2013-09-27 18:23:00,70.0,55.9,30.24,ENE,70,5.0,8.0,61,0.00,,,0.00,23,Wunderground v.1.15,2013-09-27 22:23:00,
2013-09-27 18:28:00,69.6,54.6,30.24,NE,53,6.0,9.0,59,0.00,,,0.00,19,Wunderground v.1.15,2013-09-27 22:28:00,
2013-09-27 18:33:00,69.3,54.8,30.24,NNE,14,5.0,7.0,60,0.00,,,0.00,18,Wunderground v.1.15,2013-09-27 22:33:00,
2013-09-27 18:38:00,69.0,55.9,30.24,ENE,70,5.0,7.0,63,0.00,,,0.00,16,Wunderground v.1.15,2013-09-27 22:38:00,
2013-09-27 18:44:00,68.3,56.1,30.24,North,360,5.0,6.0,65,0.00,,,0.00,14,Wunderground v.1.15,2013-09-27 22:44:00,
2013-09-27 18:49:00,67.5,56.6,30.25,ENE,72,4.0,7.0,68,0.00,,,0.00,12,Wunderground v.1.15,2013-09-27 22:49:00,
2013-09-27 18:54:00,67.0,56.1,30.25,ENE,59,4.0,6.0,68,0.00,,,0.00,11,Wunderground v.1.15,2013-09-27 22:54:00,
2013-09-27 19:00:00,66.5,56.4,30.25,NE,40,4.0,5.0,70,0.00,,,0.00,7,Wunderground v.1.15,2013-09-27 23:00:00,
2013-09-27 19:06:00,66.1,56.0,30.25,NE,40,4.0,6.0,70,0.00,,,0.00,5,Wunderground v.1.15,2013-09-27 23:06:00,
2013-09-27 19:12:00,65.4,56.1,30.25,NNW,341,3.0,4.0,72,0.00,,,0.00,0,Wunderground v.1.15,2013-09-27 23:12:00,
2013-09-27 19:17:00,64.7,56.2,30.25,NW,323,3.0,5.0,74,0.00,,,0.00,0,Wunderground v.1.15,2013-09-27 23:17:00,
2013-09-27 19:22:00,64.1,56.0,30.26,NW,321,4.0,5.0,75,0.00,,,0.00,0,Wunderground v.1.15,2013-09-27 23:22:00,
2013-09-27 19:28:00,63.5,55.8,30.26,NW,317,4.0,6.0,76,0.00,,,0.00,0,Wunderground v.1.15,2013-09-27 23:28:00,
2013-09-27 19:34:00,62.9,55.6,30.26,NW,318,4.0,5.0,77,0.00,,,0.00,0,Wunderground v.1.15,2013-09-27 23:34:00,
2013-09-27 19:39:00,62.4,55.4,30.26,NW,318,4.0,5.0,78,0.00,,,0.00,0,Wunderground v.1.15,2013-09-27 23:39:00,
2013-09-27 19:45:00,61.9,55.7,30.26,NW,317,3.0,4.0,80,0.00,,,0.00,0,Wunderground v.1.15,2013-09-27 23:45:00,
2013-09-27 19:50:00,61.2,55.3,30.26,NW,318,1.0,3.0,81,0.00,,,0.00,0,Wunderground v.1.15,2013-09-27 23:50:00,
2013-09-27 19:55:00,60.7,55.2,30.26,NW,305,2.0,5.0,82,0.00,,,0.00,0,Wunderground v.1.15,2013-09-27 23:55:00,
2013-09-27 20:00:00,60.3,55.1,30.26,NW,304,2.0,2.0,83,0.00,,,0.00,0,Wunderground v.1.15,2013-09-28 00:00:00,
2013-09-27 20:06:00,59.9,55.1,30.26,NW,306,2.0,2.0,84,0.00,,,0.00,0,Wunderground v.1.15,2013-09-28 00:06:00,
2013-09-27 20:11:00,59.5,54.7,30.26,NW,304,1.0,1.0,84,0.00,,,0.00,0,Wunderground v.1.15,2013-09-28 00:11:00,
2013-09-27 20:16:00,59.2,54.7,30.27,NW,304,0.0,1.0,85,0.00,,,0.00,0,Wunderground v.1.15,2013-09-28 00:16:00,
2013-09-27 20:22:00,58.9,54.7,30.27,NW,306,0.0,1.0,86,0.00,,,0.00,0,Wunderground v.1.15,2013-09-28 00:22:00,
2013-09-27 20:27:00,58.6,54.4,30.27,NW,306,0.0,1.0,86,0.00,,,0.00,0,Wunderground v.1.15,2013-09-28 00:27:00,
2013-09-27 20:32:00,58.4,54.5,30.27,NW,309,0.0,0.0,87,0.00,,,0.00,0,Wunderground v.1.15,2013-09-28 00:32:00,
2013-09-27 20:38:00,58.2,54.3,30.27,NW,306,0.0,1.0,87,0.00,,,0.00,0,Wunderground v.1.15,2013-09-28 00:38:00,
2013-09-27 20:44:00,57.9,54.1,30.27,NW,304,0.0,0.0,87,0.00,,,0.00,0,Wunderground v.1.15,2013-09-28 00:44:00,
2013-09-27 20:49:00,57.5,54.0,30.28,WNW,303,1.0,2.0,88,0.00,,,0.00,0,Wunderground v.1.15,2013-09-28 00:49:00,
2013-09-27 20:55:00,57.2,54.0,30.28,WSW,247,2.0,2.0,89,0.00,,,0.00,0,Wunderground v.1.15,2013-09-28 00:55:00,
2013-09-27 21:00:00,57.0,54.1,30.28,WSW,248,1.0,1.0,90,0.00,,,0.00,0,Wunderground v.1.15,2013-09-28 01:00:00,
2013-09-27 21:06:00,56.7,53.8,30.28,WSW,249,1.0,1.0,90,0.00,,,0.00,0,Wunderground v.1.15,2013-09-28 01:06:00,
2013-09-27 21:11:00,56.5,53.9,30.28,WSW,249,1.0,3.0,91,0.00,,,0.00,0,Wunderground v.1.15,2013-09-28 01:11:00,
2013-09-27 21:16:00,56.4,53.8,30.28,WSW,248,2.0,3.0,91,0.00,,,0.00,0,Wunderground v.1.15,2013-09-28 01:16:00,
2013-09-27 21:22:00,56.2,53.6,30.29,WSW,250,1.0,2.0,91,0.00,,,0.00,0,Wunderground v.1.15,2013-09-28 01:22:00,
2013-09-27 21:27:00,56.0,53.7,30.29,WSW,248,1.0,2.0,92,0.00,,,0.00,0,Wunderground v.1.15,2013-09-28 01:27:00,
2013-09-27 21:32:00,55.8,53.5,30.29,WSW,247,1.0,2.0,92,0.00,,,0.00,0,Wunderground v.1.15,2013-09-28 01:32:00,
2013-09-27 21:37:00,55.6,53.3,30.29,WSW,246,1.0,2.0,92,0.00,,,0.00,0,Wunderground v.1.15,2013-09-28 01:37:00,
2013-09-27 21:43:00,55.5,53.5,30.29,WSW,248,1.0,2.0,93,0.00,,,0.00,0,Wunderground v.1.15,2013-09-28 01:43:00,
2013-09-27 21:48:00,55.3,53.3,30.29,WSW,246,2.0,3.0,93,0.00,,,0.00,0,Wunderground v.1.15,2013-09-28 01:48:00,
2013-09-27 21:53:00,55.1,53.1,30.29,WSW,249,1.0,1.0,93,0.00,,,0.00,0,Wunderground v.1.15,2013-09-28 01:53:00,
2013-09-27 21:59:00,55.0,53.0,30.29,WSW,247,1.0,2.0,93,0.00,,,0.00,0,Wunderground v.1.15,2013-09-28 01:59:00,
2013-09-27 22:05:00,54.8,52.8,30.30,WSW,248,1.0,2.0,93,0.00,,,0.00,0,Wunderground v.1.15,2013-09-28 02:05:00,
2013-09-27 22:11:00,54.6,52.9,30.30,WSW,248,1.0,1.0,94,0.00,,,0.00,0,Wunderground v.1.15,2013-09-28 02:11:00,
2013-09-27 22:16:00,54.4,52.7,30.30,WSW,249,0.0,1.0,94,0.00,,,0.00,0,Wunderground v.1.15,2013-09-28 02:16:00,
2013-09-27 22:21:00,54.2,52.5,30.30,WSW,250,0.0,0.0,94,0.00,,,0.00,0,Wunderground v.1.15,2013-09-28 02:21:00,
2013-09-27 22:27:00,54.0,52.3,30.31,WSW,250,0.0,1.0,94,0.00,,,0.00,0,Wunderground v.1.15,2013-09-28 02:27:00,
2013-09-27 22:32:00,53.9,52.2,30.31,WSW,248,0.0,0.0,94,0.00,,,0.00,0,Wunderground v.1.15,2013-09-28 02:32:00,
2013-09-27 22:38:00,53.8,52.4,30.31,WSW,250,0.0,0.0,95,0.00,,,0.00,0,Wunderground v.1.15,2013-09-28 02:38:00,
2013-09-27 22:43:00,53.7,52.3,30.31,WSW,246,0.0,2.0,95,0.00,,,0.00,0,Wunderground v.1.15,2013-09-28 02:43:00,
2013-09-27 22:48:00,53.4,52.0,30.31,WSW,248,1.0,3.0,95,0.00,,,0.00,0,Wunderground v.1.15,2013-09-28 02:48:00,
2013-09-27 22:53:00,53.3,51.9,30.31,WSW,246,1.0,1.0,95,0.00,,,0.00,0,Wunderground v.1.15,2013-09-28 02:53:00,
2013-09-27 22:59:00,53.3,52.2,30.31,WSW,247,1.0,2.0,96,0.00,,,0.00,0,Wunderground v.1.15,2013-09-28 02:59:00,
2013-09-27 23:05:00,53.2,52.1,30.31,WSW,247,1.0,1.0,96,0.00,,,0.00,0,Wunderground v.1.15,2013-09-28 03:05:00,
2013-09-27 23:10:00,53.0,51.9,30.31,WSW,246,1.0,1.0,96,0.00,,,0.00,0,Wunderground v.1.15,2013-09-28 03:10:00,
2013-09-27 23:16:00,52.9,51.8,30.31,WSW,246,0.0,1.0,96,0.00,,,0.00,0,Wunderground v.1.15,2013-09-28 03:16:00,
2013-09-27 23:21:00,52.9,51.8,30.31,WSW,249,0.0,0.0,96,0.00,,,0.00,0,Wunderground v.1.15,2013-09-28 03:21:00,
2013-09-27 23:26:00,52.8,51.7,30.31,WSW,248,0.0,0.0,96,0.00,,,0.00,0,Wunderground v.1.15,2013-09-28 03:26:00,
2013-09-27 23:32:00,52.7,51.6,30.31,WSW,250,0.0,0.0,96,0.00,,,0.00,0,Wunderground v.1.15,2013-09-28 03:32:00,
2013-09-27 23:37:00,52.6,51.5,30.31,WSW,248,0.0,1.0,96,0.00,,,0.00,0,Wunderground v.1.15,2013-09-28 03:37:00,
2013-09-27 23:42:00,52.4,51.3,30.31,WSW,249,0.0,0.0,96,0.00,,,0.00,0,Wunderground v.1.15,2013-09-28 03:42:00,
2013-09-27 23:48:00,52.1,51.0,30.32,WSW,250,0.0,0.0,96,0.00,,,0.00,0,Wunderground v.1.15,2013-09-28 03:48:00,
2013-09-27 23:53:00,51.9,50.8,30.32,WSW,246,0.0,0.0,96,0.00,,,0.00,0,Wunderground v.1.15,2013-09-28 03:53:00,
2013-09-27 23:59:00,51.7,50.6,30.32,WSW,246,0.0,2.0,96,0.00,,,0.00,0,Wunderground v.1.15,2013-09-28 03:59:00,